Volver al catálogo

SL-12 R/B(2)

ActivoGEO
NORAD 19400·ROCKET BODY·🇷🇺 Russia

Lanzado Aug 18, 1988 desde Baikonur Cosmodrome

Loading…

TLE

ActualizadoSource: Space-Track

Época: Sep 14, 2026, 11:13 UTC

1 19400U 88071D   26257.46758478  .00000066  00000-0  00000-0 0  9991
2 19400  11.1448 328.4754 0020450 244.1161 166.3752  1.00549980133607

Sigue SL-12 R/B(2) en tiempo real con AllMySat

Download on the App Store